VK2XSE Weather Reports


Display with metric or nautical units.
time (UTC)temp
F
wind
direction
speed
MPH
gust
MPH
rain 1hr
in
rain 24hr
in
rain mn
in
humidity
%
barometer
mb
20260905034019 65 270 9.0 13.0 0.00 0.09 0.09 77 1010.0
20260905033019 64 293 7.0 12.0 0.01 0.09 0.09 80 1009.8
20260905032019 64 293 6.0 10.0 0.02 0.09 0.09 82 1010.1
20260905031019 63 293 5.0 10.0 0.03 0.09 0.09 84 1010.4
20260905030019 62 315 4.0 10.0 0.04 0.09 0.09 86 1010.9
20260905025018 61 315 4.0 7.0 0.06 0.09 0.09 87 1011.0
20260905024019 60 315 4.0 9.0 0.06 0.09 0.09 86 1011.4
20260905023018 60 315 4.0 8.0 0.07 0.09 0.09 86 1011.3
20260905022018 60 293 5.0 10.0 0.08 0.08 0.08 85 1012.0
20260905021018 61 315 4.0 9.0 0.06 0.06 0.06 85 1012.4
20260905020018 61 293 4.0 8.0 0.06 0.06 0.06 84 1013.0
20260905015018 61 293 5.0 9.0 0.04 0.04 0.04 83 1013.3
20260905014018 62 270 5.0 10.0 0.03 0.03 0.03 82 1013.1
20260905013018 63 270 4.0 8.0 0.02 0.02 0.02 80 1013.7
20260905012018 64 270 5.0 11.0 0.00 0.00 0.00 76 1013.8
20260905011018 64 248 6.0 13.0 0.00 0.00 0.00 73 1013.5
20260905010018 64 248 6.0 13.0 0.00 0.00 0.00 73 1013.6
20260905005018 65 248 5.0 10.0 0.00 0.00 0.00 73 1013.8
20260905004018 65 248 8.0 13.0 0.00 0.00 0.00 71 1013.8
20260905003018 66 248 8.0 15.0 0.00 0.00 0.00 70 1013.7
20260905002018 67 248 9.0 15.0 0.00 0.00 0.00 69 1013.9
20260905001018 67 248 11.0 18.0 0.00 0.00 0.00 68 1013.9
20260905000018 66 248 7.0 12.0 0.00 0.00 0.00 69 1014.0
20260904235018 66 248 6.0 11.0 0.00 0.00 0.00 68 1014.1
20260904234018 65 270 4.0 8.0 0.00 0.00 0.00 69 1013.9
20260904233018 65 248 6.0 13.0 0.00 0.00 0.00 69 1013.8
20260904232018 65 248 6.0 10.0 0.00 0.00 0.00 70 1014.1
20260904231018 65 248 5.0 10.0 0.00 0.00 0.00 69 1013.8
20260904230028 66 248 5.0 11.0 0.00 0.00 0.00 67 1013.7
20260904225018 66 248 5.0 10.0 0.00 0.00 0.00 66 1013.6
20260904224018 67 225 5.0 9.0 0.00 0.00 0.00 64 1013.7
20260904223018 68 293 5.0 8.0 0.00 0.00 0.00 56 1012.8
20260904222018 68 315 3.0 7.0 0.00 0.00 0.00 58 1012.0
20260904221018 67 315 3.0 7.0 0.00 0.00 0.00 60 1011.7
20260904220017 67 315 3.0 6.0 0.00 0.00 0.00 61 1012.0
20260904215018 67 315 4.0 8.0 0.00 0.00 0.00 63 1012.2
20260904214018 66 315 3.0 6.0 0.00 0.00 0.00 65 1012.1
20260904213017 66 315 2.0 6.0 0.00 0.00 0.00 67 1011.6
20260904212017 67 315 4.0 9.0 0.00 0.00 0.00 66 1011.8
20260904211017 67 315 2.0 5.0 0.00 0.00 0.00 62 1011.4
20260904210017 67 0 2.0 5.0 0.00 0.00 0.00 63 1011.3
20260904205017 67 315 2.0 6.0 0.00 0.00 0.00 65 1011.2
20260904204018 66 315 3.0 9.0 0.00 0.00 0.00 65 1011.2
20260904203018 65 293 2.0 5.0 0.00 0.00 0.00 67 1011.1
20260904202017 65 315 3.0 6.0 0.00 0.00 0.00 68 1011.3
20260904201018 64 315 3.0 5.0 0.00 0.00 0.00 69 1011.3
20260904200017 64 315 3.0 8.0 0.00 0.00 0.00 68 1011.4
20260904195017 64 315 3.0 7.0 0.00 0.00 0.00 64 1011.6
20260904194018 65 338 1.0 5.0 0.00 0.00 0.00 63 1011.0
20260904193018 65 315 4.0 10.0 0.00 0.00 0.00 62 1011.6
20260904192017 65 315 5.0 9.0 0.00 0.00 0.00 64 1011.8
20260904191017 65 0 4.0 9.0 0.00 0.00 0.00 66 1011.1
20260904190017 65 293 4.0 8.0 0.00 0.00 0.00 62 1011.7
20260904185017 65 293 5.0 11.0 0.00 0.00 0.00 61 1012.1
20260904184017 64 0 3.0 9.0 0.00 0.00 0.00 60 1011.8
20260904183017 63 315 2.0 5.0 0.00 0.00 0.00 62 1012.0
20260904182017 61 338 2.0 8.0 0.00 0.00 0.00 65 1011.9
20260904181017 59 338 1.0 5.0 0.00 0.00 0.00 68 1012.4
20260904180017 59 0.0 2.0 0.00 0.00 0.00 70 1012.7
20260904175017 58 0.0 2.0 0.00 0.00 0.00 72 1013.0
20260904174017 57 23 1.0 2.0 0.00 0.00 0.00 74 1012.9
20260904173017 57 0.0 1.0 0.00 0.00 0.00 77 1012.8
20260904172017 57 0.0 2.0 0.00 0.00 0.00 77 1013.3
20260904171017 57 23 1.0 2.0 0.00 0.00 0.00 78 1013.7
20260904170017 57 0.0 2.0 0.00 0.00 0.00 78 1013.9
20260904165017 57 23 1.0 2.0 0.00 0.00 0.00 78 1014.3
20260904164017 57 0.0 2.0 0.00 0.00 0.00 79 1014.8
20260904163017 56 0.0 2.0 0.00 0.00 0.00 79 1015.1
20260904162017 56 0.0 2.0 0.00 0.00 0.00 78 1015.4
20260904161017 56 0.0 2.0 0.00 0.00 0.00 79 1015.4
20260904160017 56 23 1.0 2.0 0.00 0.00 0.00 81 1015.5
20260904155017 56 0.0 2.0 0.00 0.00 0.00 81 1015.5
20260904154017 56 0.0 1.0 0.00 0.00 0.00 80 1015.7
20260904153017 56 0.0 2.0 0.00 0.00 0.00 81 1015.8
20260904152017 56 0.0 2.0 0.00 0.00 0.00 81 1015.9
20260904151019 56 23 1.0 2.0 0.00 0.00 0.00 82 1015.8
20260904150018 56 23 1.0 2.0 0.00 0.00 0.00 81 1015.9
20260904145018 56 23 1.0 1.0 0.00 0.00 0.00 80 1016.1
20260904144019 56 0.0 2.0 0.00 0.00 0.00 79 1016.2
20260904143019 56 0.0 2.0 0.00 0.00 0.00 79 1016.3
20260904142019 56 0.0 2.0 0.00 0.00 0.00 81 1016.3
20260904141018 56 0.0 1.0 0.00 0.00 0.00 81 1016.4
20260904140028 56 0.0 2.0 0.00 0.00 0.00 82 1016.3
20260904135018 56 0.0 0.0 0.00 0.00 0.00 81 1016.4
20260904134018 56 0.0 0.0 0.00 0.00 0.00 80 1016.6
20260904133018 57 0.0 1.0 0.00 0.00 0.00 80 1016.5
20260904132018 57 0.0 2.0 0.00 0.00 0.00 80 1016.6
20260904131018 57 0.0 2.0 0.00 0.00 0.00 79 1016.8
20260904130018 58 0.0 1.0 0.00 0.00 0.00 79 1016.9
20260904125018 58 0.0 2.0 0.00 0.00 0.00 79 1016.8
20260904124018 58 0.0 2.0 0.00 0.00 0.00 78 1016.9
20260904123018 59 0.0 1.0 0.00 0.00 0.00 78 1017.0
20260904122018 59 0.0 2.0 0.00 0.00 0.00 78 1017.1
20260904121018 59 0.0 0.0 0.00 0.00 0.00 78 1017.4
20260904120018 59 0.0 2.0 0.00 0.00 0.00 76 1017.4
20260904115018 60 0.0 2.0 0.00 0.00 0.00 75 1017.5
20260904114018 60 0.0 2.0 0.00 0.00 0.00 75 1017.9
20260904113018 60 0.0 1.0 0.00 0.00 0.00 72 1018.0
20260904112018 60 0.0 2.0 0.00 0.00 0.00 70 1017.8
20260904111018 61 0.0 2.0 0.00 0.00 0.00 70 1018.0
20260904110018 62 0.0 2.0 0.00 0.00 0.00 68 1018.1
20260904105018 62 0.0 2.0 0.00 0.00 0.00 64 1018.3
20260904104018 62 0.0 2.0 0.00 0.00 0.00 62 1018.2
20260904103018 63 0.0 2.0 0.00 0.00 0.00 61 1018.2
20260904102018 63 315 1.0 1.0 0.00 0.00 0.00 60 1018.2
20260904101018 63 0.0 2.0 0.00 0.00 0.00 59 1018.1
20260904100018 63 0.0 2.0 0.00 0.00 0.00 60 1018.0
20260904095018 63 293 1.0 2.0 0.00 0.00 0.00 60 1018.2
20260904094018 63 293 2.0 3.0 0.00 0.00 0.00 61 1018.1
20260904093018 63 315 1.0 3.0 0.00 0.00 0.00 63 1017.9
20260904092018 63 0.0 1.0 0.00 0.00 0.00 64 1017.8
20260904091018 64 0.0 2.0 0.00 0.00 0.00 64 1017.6
20260904090018 64 0.0 2.0 0.00 0.00 0.00 64 1017.5
20260904085018 64 0.0 2.0 0.00 0.00 0.00 63 1017.2
20260904084018 64 45 1.0 3.0 0.00 0.00 0.00 63 1017.0
20260904083018 65 338 1.0 2.0 0.00 0.00 0.00 63 1017.3
20260904082017 66 0.0 1.0 0.00 0.00 0.00 61 1017.7
20260904081018 67 0.0 0.0 0.00 0.00 0.00 60 1017.9
20260904080018 68 0.0 2.0 0.00 0.00 0.00 58 1018.1
20260904075017 68 0.0 2.0 0.00 0.00 0.00 55 1017.9
20260904074017 69 0.0 0.0 0.00 0.00 0.00 51 1018.1
20260904073017 69 0.0 2.0 0.00 0.00 0.00 49 1018.1
20260904072018 69 293 1.0 3.0 0.00 0.00 0.00 48 1018.3
20260904071017 69 315 2.0 4.0 0.00 0.00 0.00 48 1018.3
20260904070017 70 293 2.0 5.0 0.00 0.00 0.00 48 1018.4
20260904065017 70 293 2.0 3.0 0.00 0.00 0.00 47 1018.5
20260904064017 70 293 4.0 8.0 0.00 0.00 0.00 46 1018.5
20260904063017 70 293 4.0 7.0 0.00 0.00 0.00 46 1018.8
20260904062017 70 293 4.0 8.0 0.00 0.00 0.00 46 1018.8
20260904061017 71 293 3.0 9.0 0.00 0.00 0.00 46 1018.7
20260904060017 71 293 4.0 9.0 0.00 0.00 0.00 45 1018.7
20260904055017 71 315 2.0 4.0 0.00 0.00 0.00 47 1018.7
20260904054017 71 315 3.0 7.0 0.00 0.00 0.00 47 1018.6
20260904053017 71 293 4.0 12.0 0.00 0.00 0.00 47 1018.8
20260904052017 71 293 1.0 3.0 0.00 0.00 0.00 47 1018.7
20260904051017 72 293 4.0 10.0 0.00 0.00 0.00 46 1018.6
20260904050017 72 293 2.0 3.0 0.00 0.00 0.00 45 1018.6
20260904045017 72 0 2.0 6.0 0.00 0.00 0.00 47 1018.6
20260904044017 72 270 2.0 6.0 0.00 0.00 0.00 46 1018.5
20260904043017 73 315 3.0 7.0 0.00 0.00 0.00 46 1018.5
20260904042017 72 315 3.0 8.0 0.00 0.00 0.00 46 1018.6
20260904041017 71 315 2.0 6.0 0.00 0.00 0.00 49 1018.7
20260904040017 71 293 2.0 7.0 0.00 0.00 0.00 47 1018.8
20260904035017 72 315 2.0 5.0 0.00 0.00 0.00 46 1018.8